Regional Weather Roundup
Issued by NWS Little Rock, AR

Home | Current Version | Previous Version | Graphics & Text | Print | Product List | Glossary On
Versions: 1 2 3 4 5 6 7 8 9 10 11 12 13 14 15 16 17 18 19 20 21 22 23 24 25 26 27 28 29 30 31 32 33 34 35 36 37 38 39 40 41 42 43 44 45 46 47 48 49 50
027
ASUS44 KLZK 282005
RWRLZK

WEATHER ROUNDUP FOR ARKANSAS
NATIONAL WEATHER SERVICE LITTLE ROCK AR
300 PM CDT THU JUL 28 2016

NOTE: "FAIR" INDICATES FEW OR NO CLOUDS BELOW 12,000 FEET WITH NO
SIGNIFICANT WEATHER AND/OR OBSTRUCTIONS TO VISIBILITY.

ARZ001-003-010-029-282100-
NORTHWEST ARKANSAS

CITY           SKY/WX    TMP DP  RH WIND       PRES   REMARKS
FAYETTEVILLE   MOSUNNY   88  73  61 CALM      29.97F HX  95
FORT SMITH     MOSUNNY   95  68  41 VRB3      29.91F HX  99
HARRISON       SUNNY     91  63  39 VRB6      29.96F HX  92
BENTONVILLE    MOSUNNY   90  70  51 W6        29.98S HX  95
ROGERS         SUNNY     89  72  56 CALM      29.97F HX  96
SILOAM SPGS    SUNNY     91  66  43 CALM      29.98  HX  94
HIGHFILL       PTSUNNY   88  73  61 CALM      29.96F HX  95
SPRINGDALE     PTSUNNY   90  70  51 CALM      29.98F HX  95
$$

ARZ004-005-016-282100-
NORTH CENTRAL ARKANSAS

CITY           SKY/WX    TMP DP  RH WIND       PRES   REMARKS
BATESVILLE     CLOUDY    91  75  59 SW5       29.90F HX 102
FLIPPIN        MOSUNNY   91  70  49 NW5       29.90F HX  97
MTN HOME       MOSUNNY   88  73  61 W5        29.93F HX  95
$$

ARZ040-041-282100-
WEST CENTRAL ARKANSAS

CITY           SKY/WX    TMP DP  RH WIND       PRES   REMARKS
MENA             N/A    N/A N/A N/A MISG        N/A
MOUNT IDA      PTSUNNY   89  75  63 VRB3      29.94F HX  99
$$

ARZ009-017-025-026-028-282100-
NORTHEAST ARKANSAS

CITY           SKY/WX    TMP DP  RH WIND       PRES   REMARKS
CORNING          N/A     91  77  62 S8        29.89F HX 105
JONESBORO      MOSUNNY   89  75  63 SW6       29.89F HX  99
NEWPORT        CLOUDY    93  76  57 S8        29.91F THUNDER HX 105
WALNUT RIDGE   MOSUNNY   91  75  59 S9        29.88F HX 102
BLYTHEVILLE    MOSUNNY   89  77  67 SW8       29.91F HX 101
NW BLYTHEVILLE PTSUNNY   91  77  62 SW9       29.90  HX 105
$$

ARZ022-023-033-042-044-282100-
CENTRAL ARKANSAS

CITY           SKY/WX    TMP DP  RH WIND       PRES   REMARKS
LITTLE ROCK    CLOUDY    90  76  63 S13       29.93F HX 101
N LITTLE ROCK    N/A     90  77  66 SW6       29.90F HX 103
SEARCY         MOSUNNY   92  78  63 S8        29.92F HX 107
HOT SPRINGS    CLOUDY    87  74  64 SW8       29.96S HX  95
RUSSELLVILLE   MOSUNNY   91  73  55 W6        29.90F HX  99
$$

ARZ036-282100-
EAST ARKANSAS

CITY           SKY/WX    TMP DP  RH WIND       PRES   REMARKS
WEST MEMPHIS   MOSUNNY   85  77  77 S9        29.92F HX  95
$$

ARZ050-053-066-070-073-282100-
SOUTHWEST ARKANSAS

CITY           SKY/WX    TMP DP  RH WIND       PRES   REMARKS
ARKADELPHIA    MOCLDY    83  75  77 S9        29.97F HX  90
CAMDEN         CLOUDY    77  72  83 SW6       29.99F
TEXARKANA      LGT RAIN  76  75  97 S7        29.99F
EL DORADO      LGT RAIN  75  74  96 S7        30.01F
DE QUEEN       CLOUDY    81  76  84 SE3       29.95F HX  87
$$

ARZ056-057-069-282100-
SOUTHEAST ARKANSAS

CITY           SKY/WX    TMP DP  RH WIND       PRES   REMARKS
PINE BLUFF     CLOUDY    83  74  74 S14       29.97S HX  89
STUTTGART      PTSUNNY   88  75  66 S14       29.94F HX  97
MONTICELLO     CLOUDY    79  74  84 S10       30.00S

$$






USA.gov is the U.S. government's official web portal to all federal, state and local government web resources and services.